BREEZE-M DEB, 34241

Orbit data source: Space-Track

BREEZE-M DEB, 34241 is space debris in HEO originally from a launch on Tue, 28 Feb 2006 UTC launched from the Tyuratam Missile And Space Complex (TTMTR). Debris objects in space refer to the collection of defunct objects orbiting the Earth. Examples of debris include non-operational satellites, rocket bodies, and fragments generated from explosions, collisions, or faulty payload assembly.

Loading next visibility...
Identifier
34241, 2006-006BG
Orbit
HEO
Country
Flag of CISCIS
Related business
Manufacturer
Khrunichev
Mission
Spacecraft
Bus & Motor
Unknown
Mass
Unknown
Launch date (UTC)
2006-02-28 (20 years ago)
Launch vehicle
Unknown
Launch site
Tyuratam Missile And Space Complex (TTMTR)
Object type
Payload
Rocket body
Debris
Shape & HBR
Unknown shape, 0.1 m
Radar Cross Section
Medium (>0.1 m² and <1 m²)

Expand to show TLE details & history
Last TLE update: 3 days ago

TLE from 3 days ago
0 BREEZE-M DEB
1 34241U 06006BG  26160.37227039  .00007062  00000-0  23839-1 0  9995
2 34241  51.8136 120.5906 4900194  23.1918 151.9298  5.42042449 39386
Epoch: 2026-06-09T08:56Z
TLE epoch observation values (Epoch: 2026-06-09T08:56:04.161Z)
Latitude
-9.49047°
Longitude
-83.63655°
Altitude
13,659 km
Speed
3.267 km/s
True Right ascension
20h 32m 30s
True Declination
-9° 28' 14"
Sunlit
Object was in daylight at epoch
Visualization orbit readout
Latitude
Unknown
Longitude
Unknown
Altitude
Unknown
Speed
Unknown
Apparent Right ascension
Unknown
Apparent Declination
Unknown
Sunlit
N/A
Visualization observer readout
Local Sidereal Time
15:43:30
Azimuth
Unknown
Elevation
Unknown
Doppler factor
Unknown
Orbital elements
Apogee altitude
14,019.653 km
Perigee altitude
603.301 km
Semi-major axis
13,689.614 km
Eccentricity
0.49002
Inclination
51.8136°
RAAN
120.5906°
Arg. of periapsis
23.1918°
True anomaly
168.84569°
Mean anomaly
151.9298°
Eccentric anomaly
161.04815°
Mean motion
1.35505 °/min
Orbital period
265.67 mins
BSTAR
0.023839
Loading maneuver chart data...
Computing Atmospheric mass density...
Loading historical data...
Loading historical data...
Loading historical data...
Loading historical data...
Loading historical data...
Loading historical data...
Loading historical data...

Documentation

Showing up to 5 results
|